CAPE
2748 2597 2632 2411 2222 2232 2151 2147 2180 2330 2158 2114 1970 1928 1872 1889 1752 1692 1821 1844 1860 1924 1697 1277 1263 1340 1207 1092 1041 879 904 870 779 874 932 890 980 901 692 561 601 498
2797 2772 2628 2520 2359 2218 2240 2300 2249 2245 2282 2077 2086 1986 1939 1794 1808 1732 1804 1780 1640 1631 1207 1195 1212 1118 1018 974 786 816 531 718 768 488 553 480 456 275 331 381 486 472
2819 2799 2823 2650 2546 2602 2350 2256 2254 2206 2082 2014 2029 2039 1903 1868 1858 1637 1613 1674 1526 1374 1165 1095 1003 740 682 633 598 691 553 526 417 62 75 102 88 36 64 98 156 251
2833 2794 2744 2718 2659 2650 2433 2224 2245 2128 2124 1961 1987 1859 1895 1884 1721 1422 1521 1214 1406 1119 1086 1045 979 815 563 371 460 458 492 250 120 0 0 1 0 0 0 0 1 18
2839 2744 2707 2626 2663 2573 2401 2327 2268 2117 2122 2195 2074 2021 1734 1426 1576 1494 1435 1280 1094 1015 916 702 585 448 374 410 346 323 337 178 0 0 0 0 0 1 0 0 0 0
2828 2781 2548 2426 2690 2657 2390 2336 2248 2075 2062 1990 1921 1817 1661 1480 1381 1304 1400 1030 851 712 622 552 495 393 354 321 314 262 276 0 0 0 0 0 0 0 0 0 0 0
2877 2775 2569 2650 2622 2581 2399 2416 2211 2020 1960 1940 2010 1761 1616 1704 1497 1421 1166 929 775 731 608 532 375 309 246 252 249 310 212 0 0 0 0 0 0 0 0 0 0 0
2832 2860 2681 2538 2629 2522 2130 2402 2266 2146 2028 1795 1815 1733 1748 1621 1683 1396 959 833 732 713 625 543 448 309 20 194 17 225 0 0 0 0 0 0 0 0 0 0 0 0
2860 2733 2450 2645 2635 2630 2484 2420 2406 2254 1913 1779 1746 1792 1786 1786 1726 1161 921 812 795 691 599 528 375 294 106 166 151 0 0 0 0 0 0 0 0 0 0 0 0 0
2841 2684 2614 2576 2739 2675 2414 2423 2361 2100 1925 1868 1709 1761 1728 1743 1681 1103 965 780 719 712 604 533 444 358 176 121 26 0 0 0 0 0 0 0 0 0 0 0 0 0
2864 2777 2646 2458 2555 2448 2574 2400 2228 2081 1900 1683 1851 1679 1646 1413 1373 1054 1032 857 766 702 625 516 446 433 340 261 247 0 0 0 0 0 0 0 0 0 0 0 0 0
2826 2696 2630 2587 2537 2549 2551 2284 2040 1994 1842 1837 1803 1615 1368 1498 1257 1108 1050 938 857 793 666 517 403 291 103 317 276 118 0 0 0 0 0 0 0 0 0 0 0 0
2603 2630 2582 2547 2572 2346 2437 2068 1721 1896 1838 1772 1659 1626 1453 1419 1203 1151 1092 994 866 774 705 565 436 292 411 323 288 128 0 0 0 0 0 0 0 0 0 0 0 0
2757 2447 2576 2449 2128 2138 2121 1919 1805 1858 1798 1769 1558 1634 1447 1291 1208 1143 1059 958 873 816 742 603 436 348 381 359 267 0 0 0 0 0 0 0 0 0 0 0 0 0
2395 2433 2425 2271 1896 1875 1921 1917 1845 1795 1902 1738 1553 1480 1427 1228 1179 1099 1036 981 888 842 744 569 366 392 397 386 216 0 0 0 0 0 0 0 0 0 0 0 0 0
2276 2321 2185 1840 1826 1874 1903 1912 1876 1805 1901 1693 1429 1289 1349 1188 1101 1063 1062 1011 872 733 721 552 416 426 438 394 263 0 0 0 0 0 0 0 0 0 0 0 0 0
2321 2162 1871 1825 1807 1893 1914 1990 1885 1730 1808 1388 1116 1242 1277 1107 963 966 946 917 839 756 796 652 538 457 476 364 32 0 0 0 0 0 0 0 0 0 0 0 0 0
2066 1938 1933 1822 1783 1804 1953 2025 1869 1604 1605 1498 1307 1143 1239 938 963 986 951 902 798 735 798 696 589 489 396 337 50 0 0 0 0 0 0 0 0 0 0 0 0 0
1844 1796 1827 1845 1801 1776 1912 2028 1881 1659 1572 1503 1316 1334 1265 932 1067 1070 916 835 784 758 768 686 616 476 381 267 0 0 0 0 0 0 0 0 0 0 0 0 0 0
1696 1726 1779 1853 1816 1760 1896 2055 1946 1646 1528 1492 1412 1444 1336 1071 1128 1140 930 781 703 715 692 667 606 445 347 222 0 0 0 0 0 0 0 0 0 0 0 0 0 0
1637 1629 1620 1783 1774 1710 1930 2103 1948 1629 1492 1480 1483 1400 1280 1058 989 1040 855 767 738 744 680 607 551 394 259 80 0 0 0 0 0 0 0 0 0 0 0 0 0 0
1533 1594 1582 1613 1624 1670 1772 1988 1933 1600 1455 1425 1418 1281 974 805 934 912 814 740 728 707 639 577 522 378 259 99 0 0 0 0 0 0 0 0 0 0 0 0 0 0
1535 1458 1475 1529 1598 1621 1636 1906 1880 1576 1398 1462 1404 1147 811 855 1058 931 814 798 717 655 585 497 445 366 276 203 0 0 0 0 0 0 0 0 0 0 0 0 0 0
1445 1379 1393 1446 1526 1599 1570 1778 1812 1484 1425 1455 1390 982 909 998 1142 993 921 782 668 689 588 532 355 300 268 214 0 0 0 0 0 0 0 0 0 0 0 0 0 0
1421 1311 1270 1370 1508 1594 1559 1700 1756 1527 1477 1461 1222 963 954 1133 1175 1036 883 677 628 732 650 510 299 227 207 138 0 0 0 0 0 0 0 0 0 0 0 0 0 0
1323 1321 1285 1340 1472 1579 1535 1645 1761 1597 1393 1323 1190 1030 986 1128 1146 967 915 747 627 770 651 472 240 182 22 98 66 0 0 0 0 0 0 0 0 0 0 0 0 0
Wind_Speed
31 29 26 28 31 31 32 32 33 33 30 28 29 29 28 26 25 23 22 22 20 19 17 16 18 20 21 22 23 24 25 24 23 25 26 27 26 25 23 21 16 11
30 28 26 29 31 31 31 32 34 32 29 28 29 29 29 26 25 24 24 22 21 19 18 18 19 20 21 22 23 23 23 25 24 25 26 26 25 23 21 18 12 9
31 27 26 29 31 32 32 33 33 30 27 28 31 30 29 25 26 24 24 23 22 20 19 18 20 21 21 21 22 22 23 24 23 nan nan 25 nan nan nan nan 14 11
32 28 27 30 31 33 33 33 33 28 26 29 31 31 29 27 25 25 25 25 23 21 19 19 21 22 22 22 22 21 22 22 23 nan nan nan nan nan nan nan nan nan
34 31 29 30 31 33 34 34 33 29 27 30 31 31 31 28 26 26 26 25 24 22 21 21 23 22 22 22 23 23 24 23 nan nan nan nan nan nan nan nan nan nan
36 34 33 32 32 35 35 34 33 29 28 30 31 31 30 29 27 26 26 26 25 24 23 24 24 23 21 22 23 22 23 nan nan nan nan nan nan nan nan nan nan nan
39 39 36 34 34 36 36 36 35 31 29 30 32 32 30 29 26 25 25 26 25 24 24 25 24 23 21 22 22 22 21 nan nan nan nan nan nan nan nan nan nan nan
41 42 38 36 37 38 37 36 35 33 32 31 31 32 30 29 27 26 26 27 26 25 25 25 23 23 nan 21 nan 22 nan nan nan nan nan nan nan nan nan nan nan nan
44 43 40 39 39 39 38 37 37 36 34 31 32 31 30 29 28 27 27 28 27 26 25 25 24 23 22 20 20 nan nan nan nan nan nan nan nan nan nan nan nan nan
45 44 41 40 40 39 38 38 39 37 34 32 32 31 31 30 29 28 27 27 27 26 25 25 25 23 21 19 nan nan nan nan nan nan nan nan nan nan nan nan nan nan
45 44 42 41 40 41 40 38 40 37 35 33 32 31 32 33 30 27 27 27 27 26 26 26 26 23 20 20 21 nan nan nan nan nan nan nan nan nan nan nan nan nan
45 44 42 41 41 42 41 39 41 39 36 33 32 31 34 34 31 29 27 27 26 26 26 25 25 22 21 21 21 21 nan nan nan nan nan nan nan nan nan nan nan nan
44 43 42 42 43 43 42 43 42 39 36 34 32 31 34 35 32 29 27 26 26 27 26 24 22 21 21 21 21 22 nan nan nan nan nan nan nan nan nan nan nan nan
45 44 45 45 45 46 45 43 41 39 35 34 33 31 34 35 33 29 27 25 27 27 26 24 24 22 21 21 21 nan nan nan nan nan nan nan nan nan nan nan nan nan
47 48 47 48 49 48 45 42 40 38 36 36 34 34 35 35 32 30 28 26 27 26 26 24 23 21 20 20 21 nan nan nan nan nan nan nan nan nan nan nan nan nan
49 49 51 52 49 45 43 41 39 39 38 37 35 36 37 34 32 30 28 26 27 26 25 24 22 19 21 22 21 nan nan nan nan nan nan nan nan nan nan nan nan nan
49 49 48 49 46 44 42 40 40 40 38 38 36 36 33 32 31 30 27 26 27 27 26 23 21 20 28 24 nan nan nan nan nan nan nan nan nan nan nan nan nan nan
49 46 48 48 46 44 43 41 41 41 39 38 38 35 33 33 31 31 29 28 27 27 26 24 20 29 29 26 nan nan nan nan nan nan nan nan nan nan nan nan nan nan
47 45 48 47 45 45 45 44 42 42 39 37 37 35 34 33 33 33 30 28 27 27 24 22 20 29 27 26 nan nan nan nan nan nan nan nan nan nan nan nan nan nan
47 45 48 46 45 46 46 45 44 41 40 38 37 36 33 32 31 31 30 29 28 27 24 21 20 26 27 27 nan nan nan nan nan nan nan nan nan nan nan nan nan nan
47 48 46 46 47 48 48 47 44 42 41 38 37 36 34 33 32 31 30 29 27 26 23 20 22 28 28 nan nan nan nan nan nan nan nan nan nan nan nan nan nan nan
48 47 48 48 47 48 49 48 45 43 41 39 38 36 34 33 33 32 32 30 27 26 22 21 24 29 29 nan nan nan nan nan nan nan nan nan nan nan nan nan nan nan
50 48 48 47 48 50 51 48 45 43 41 40 38 36 35 33 32 31 31 29 28 25 24 22 25 26 30 30 nan nan nan nan nan nan nan nan nan nan nan nan nan nan
51 50 49 48 49 51 51 48 46 44 41 39 37 37 35 33 33 32 29 26 25 25 24 25 26 27 30 30 nan nan nan nan nan nan nan nan nan nan nan nan nan nan
52 49 49 50 51 52 51 48 45 43 40 39 37 37 36 34 33 33 32 29 27 25 29 28 28 28 30 31 nan nan nan nan nan nan nan nan nan nan nan nan nan nan
50 48 49 50 51 53 51 47 45 43 40 39 38 37 37 38 36 35 33 29 27 28 28 27 28 28 nan nan nan nan nan nan nan nan nan nan nan nan nan nan nan nan
Wind_Direction
266 275 287 293 293 293 293 290 288 288 288 288 289 289 289 289 291 292 286 281 282 283 286 291 292 296 296 297 300 301 304 308 310 307 306 305 305 307 309 312 310 301
271 281 287 290 289 289 288 287 288 289 290 292 289 289 287 289 290 287 283 281 282 284 285 288 292 295 296 294 298 302 304 305 307 298 299 303 302 304 306 304 295 284
273 282 292 292 288 289 289 286 286 286 292 296 291 287 286 288 286 284 282 282 282 283 286 289 291 292 293 295 299 303 304 304 303 nan nan 300 nan nan nan nan 284 290
274 280 286 287 284 286 286 285 284 286 290 293 292 290 287 282 283 287 283 283 281 283 285 288 287 289 292 295 299 302 304 301 297 nan nan nan nan nan nan nan nan nan
271 274 281 285 283 283 283 283 284 285 290 290 289 288 284 284 287 285 283 283 282 282 279 282 284 287 291 295 302 301 299 298 nan nan nan nan nan nan nan nan nan nan
266 271 279 284 280 281 282 282 283 285 288 290 290 287 288 291 290 288 286 285 280 279 281 281 282 283 290 296 301 301 301 nan nan nan nan nan nan nan nan nan nan nan
267 269 278 278 280 281 282 280 281 284 288 290 290 292 293 293 292 289 287 282 281 282 286 283 282 284 290 297 302 303 301 nan nan nan nan nan nan nan nan nan nan nan
269 270 276 277 280 281 283 278 281 281 283 288 291 292 295 295 294 289 285 282 279 284 286 285 284 288 nan 297 nan 301 nan nan nan nan nan nan nan nan nan nan nan nan
266 270 275 279 283 281 281 279 278 279 284 292 293 291 294 294 292 290 283 282 283 287 287 283 286 288 290 298 301 nan nan nan nan nan nan nan nan nan nan nan nan nan
266 271 277 279 280 277 279 276 277 279 284 290 293 292 293 291 289 288 284 281 284 289 288 285 287 286 291 299 nan nan nan nan nan nan nan nan nan nan nan nan nan nan
266 271 276 279 281 277 276 278 279 279 281 289 291 291 290 284 285 287 282 280 281 289 288 288 290 294 301 303 301 nan nan nan nan nan nan nan nan nan nan nan nan nan
266 270 273 277 278 275 274 276 276 277 282 285 289 292 285 283 285 282 281 282 282 286 288 290 294 298 304 304 304 302 nan nan nan nan nan nan nan nan nan nan nan nan
268 271 272 274 270 271 268 271 273 278 282 285 288 291 283 281 283 284 281 280 282 283 287 290 295 300 301 304 305 305 nan nan nan nan nan nan nan nan nan nan nan nan
263 268 266 267 266 265 267 271 275 278 282 283 286 289 282 282 285 286 282 281 281 282 283 285 289 297 303 305 307 nan nan nan nan nan nan nan nan nan nan nan nan nan
259 259 262 265 261 258 262 270 277 279 279 280 284 282 275 279 282 284 282 281 279 280 281 281 286 294 300 306 309 nan nan nan nan nan nan nan nan nan nan nan nan nan
258 259 259 260 260 263 269 272 274 274 276 279 283 278 275 276 280 282 280 278 279 279 280 279 283 291 296 309 309 nan nan nan nan nan nan nan nan nan nan nan nan nan
256 259 262 262 263 263 265 270 273 274 275 278 280 279 282 282 282 281 278 275 278 279 281 280 285 286 294 304 nan nan nan nan nan nan nan nan nan nan nan nan nan nan
253 259 259 259 258 263 266 270 272 275 277 279 278 283 280 279 282 279 275 271 271 278 281 281 288 286 303 303 nan nan nan nan nan nan nan nan nan nan nan nan nan nan
247 253 253 255 260 262 265 269 273 276 277 279 282 281 279 278 276 276 274 272 274 281 285 287 287 292 304 306 nan nan nan nan nan nan nan nan nan nan nan nan nan nan
247 254 250 255 259 262 265 269 271 275 276 278 278 278 278 278 280 281 273 271 275 280 286 292 290 296 306 307 nan nan nan nan nan nan nan nan nan nan nan nan nan nan
251 254 256 255 258 261 264 267 270 272 276 276 278 278 276 277 279 280 272 270 275 281 286 293 281 301 307 nan nan nan nan nan nan nan nan nan nan nan nan nan nan nan
251 252 253 255 259 262 264 267 270 272 275 275 274 274 271 272 272 274 270 270 275 283 289 295 282 305 305 nan nan nan nan nan nan nan nan nan nan nan nan nan nan nan
252 253 254 257 259 262 264 267 269 271 271 272 274 273 271 273 272 272 269 269 276 288 291 290 282 301 304 304 nan nan nan nan nan nan nan nan nan nan nan nan nan nan
253 253 254 256 258 261 264 265 265 265 269 271 273 271 268 269 271 271 270 273 283 289 286 283 281 295 304 302 nan nan nan nan nan nan nan nan nan nan nan nan nan nan
253 254 254 254 256 260 261 263 264 265 267 268 268 267 265 266 268 267 265 266 275 280 279 278 279 292 303 301 nan nan nan nan nan nan nan nan nan nan nan nan nan nan
253 254 253 254 257 258 259 260 260 262 266 267 266 265 262 260 260 260 264 264 269 270 270 275 283 289 nan nan nan nan nan nan nan nan nan nan nan nan nan nan nan nan